GW1087 Weather Reports


Display with metric or nautical units.
time (UTC)temp
F
wind
direction
speed
MPH
gust
MPH
rain 1hr
in
rain 24hr
in
rain mn
in
humidity
%
barometer
mb
20260510094516 57 160 0.0 0.0 0.00 0.00 0.00 89 1014.7
20260510093048 57 160 0.0 0.0 0.00 0.00 0.00 90 1014.4
20260510091552 57 160 0.0 0.0 0.00 0.00 0.00 89 1014.3
20260510090054 57 160 0.0 0.0 0.00 0.00 0.00 89 1014.3
20260510084616 57 160 0.0 0.0 0.00 0.00 0.00 88 1014.6
20260510083020 57 160 0.0 0.0 0.00 0.00 0.00 88 1014.5
20260510081534 57 160 0.0 0.0 0.00 0.00 0.00 88 1014.3
20260510080007 58 160 0.0 0.0 0.00 0.00 0.00 87 1014.1
20260510074507 58 160 0.0 0.0 0.00 0.00 0.00 85 1013.7
20260510073007 59 160 0.0 0.0 0.00 0.00 0.00 84 1013.6
20260510071529 59 160 0.0 0.0 0.00 0.00 0.00 85 1013.6
20260510070037 59 160 0.0 0.0 0.00 0.00 0.00 83 1013.8
20260510064547 59 160 0.0 0.0 0.00 0.00 0.00 82 1014.1
20260510063034 60 160 0.0 0.0 0.00 0.00 0.00 81 1014.0
20260510061554 60 160 0.0 0.0 0.00 0.00 0.00 80 1014.1
20260510060053 60 160 0.0 0.0 0.00 0.00 0.00 81 1014.2
20260510054603 60 160 0.0 0.0 0.00 0.00 0.00 80 1014.3
20260510053021 60 160 0.0 0.0 0.00 0.00 0.00 80 1014.2
20260510051531 61 160 0.0 0.0 0.00 0.00 0.00 76 1014.0
20260510050042 61 160 0.0 0.0 0.00 0.00 0.00 75 1014.0
20260510044551 61 160 0.0 0.0 0.00 0.00 0.00 75 1013.6
20260510043113 61 160 0.0 0.0 0.00 0.00 0.00 75 1013.6
20260510041520 60 160 0.0 0.0 0.00 0.00 0.00 75 1013.3
20260510040015 61 160 0.0 0.0 0.00 0.00 0.00 75 1013.3
20260510034517 62 160 0.0 0.0 0.00 0.00 0.00 72 1013.3
20260510033034 63 160 0.0 0.0 0.00 0.00 0.00 72 1013.3
20260510031544 64 160 0.0 0.0 0.00 0.00 0.00 71 1013.0
20260510030052 64 159 0.0 0.0 0.00 0.00 0.00 72 1012.7
20260510024510 65 158 0.0 1.0 0.00 0.00 0.00 71 1012.5
20260510023023 66 210 0.0 0.0 0.00 0.00 0.00 66 1012.1
20260510021538 66 210 0.0 0.0 0.00 0.00 0.00 65 1012.0
20260510020048 67 210 0.0 0.0 0.00 0.00 0.00 65 1011.6
20260510014601 68 210 0.0 0.0 0.00 0.00 0.00 64 1011.7
20260510013009 69 210 0.0 0.0 0.00 0.00 0.00 64 1011.4
20260510011510 70 210 0.0 0.0 0.00 0.00 0.00 62 1011.4
20260510010010 71 210 0.0 0.0 0.00 0.00 0.00 59 1011.2
20260510004518 73 210 0.0 0.0 0.00 0.00 0.00 56 1011.0
20260510003032 75 176 0.0 0.0 0.00 0.00 0.00 50 1010.8
20260510001531 76 176 0.0 1.0 0.00 0.00 0.00 47 1010.7
20260510000039 77 165 0.0 0.0 0.00 0.00 0.00 46 1010.7
20260509234550 79 195 0.0 1.0 0.00 0.00 0.00 44 1010.6
20260509233006 80 239 0.0 1.0 0.00 0.00 0.00 42 1010.6
20260509231529 82 164 0.0 1.0 0.00 0.00 0.00 40 1010.6
20260509230042 83 217 0.0 2.0 0.00 0.00 0.00 36 1010.5
20260509224602 83 115 0.0 2.0 0.00 0.00 0.00 34 1010.6
20260509223046 84 179 0.0 2.0 0.00 0.00 0.00 42 1010.6
20260509221548 84 288 0.0 2.0 0.00 0.00 0.00 35 1010.6
20260509220057 84 220 0.0 3.0 0.00 0.00 0.00 36 1010.5
20260509214504 85 52 0.0 2.0 0.00 0.00 0.00 34 1010.5
20260509213005 84 231 0.0 3.0 0.00 0.00 0.00 33 1010.6
20260509211515 85 133 1.0 4.0 0.00 0.00 0.00 38 1010.6
20260509210028 84 161 0.0 5.0 0.00 0.00 0.00 35 1010.8
20260509204524 84 274 0.0 2.0 0.00 0.00 0.00 34 1010.9
20260509203033 84 257 0.0 2.0 0.00 0.00 0.00 33 1010.8
20260509201544 84 152 0.0 4.0 0.00 0.00 0.00 38 1011.3
20260509200107 84 86 0.0 2.0 0.00 0.00 0.00 36 1011.4
20260509194543 83 100 0.0 3.0 0.00 0.00 0.00 35 1011.5
20260509193045 84 267 0.0 2.0 0.00 0.00 0.00 30 1011.8
20260509191545 83 40 0.0 4.0 0.00 0.00 0.00 37 1011.9
20260509190057 83 65 1.0 4.0 0.00 0.00 0.00 32 1011.9
20260509184508 82 166 1.0 4.0 0.00 0.00 0.00 30 1011.9
20260509183029 83 70 0.0 5.0 0.00 0.00 0.00 38 1011.9
20260509181545 82 27 0.0 1.0 0.00 0.00 0.00 44 1011.9
20260509180110 81 326 0.0 3.0 0.00 0.00 0.00 39 1011.7
20260509174500 81 310 0.0 4.0 0.00 0.00 0.00 53 1011.9
20260509173019 80 161 0.0 4.0 0.00 0.00 0.00 48 1012.1
20260509171536 79 33 0.0 3.0 0.00 0.00 0.00 57 1012.3
20260509170058 78 87 1.0 4.0 0.00 0.00 0.00 57 1012.3
20260509164553 80 229 0.0 1.0 0.00 0.00 0.00 59 1012.3
20260509163111 78 104 1.0 3.0 0.00 0.00 0.00 63 1012.4
20260509161515 76 271 0.0 3.0 0.00 0.00 0.00 65 1012.4
20260509160024 75 1 0.0 3.0 0.00 0.00 0.00 63 1012.4
20260509154541 74 16 1.0 3.0 0.00 0.00 0.00 66 1012.4
20260509153045 73 89 0.0 1.0 0.00 0.00 0.00 68 1012.4
20260509151550 73 331 0.0 2.0 0.00 0.00 0.00 69 1012.3
20260509150011 71 68 0.0 2.0 0.00 0.00 0.00 76 1012.3
20260509144511 70 95 0.0 2.0 0.00 0.00 0.00 73 1012.5
20260509143046 69 80 0.0 2.0 0.00 0.00 0.00 74 1012.3
20260509141542 69 103 0.0 2.0 0.00 0.00 0.00 75 1012.3
20260509140047 69 41 0.0 1.0 0.00 0.00 0.00 75 1012.2
20260509134547 68 151 0.0 1.0 0.00 0.00 0.00 76 1012.2
20260509133052 66 160 0.0 1.0 0.00 0.00 0.00 80 1012.1
20260509131507 65 252 0.0 0.0 0.00 0.00 0.00 82 1012.0
20260509130022 64 248 0.0 0.0 0.00 0.00 0.00 83 1012.0
20260509124538 59 248 0.0 0.0 0.00 0.00 0.00 90 1012.1
20260509123054 56 248 0.0 0.0 0.00 0.00 0.00 92 1012.0
20260509121553 55 250 0.0 0.0 0.00 0.00 0.00 93 1011.9
20260509120008 54 250 0.0 0.0 0.00 0.00 0.00 92 1011.7
20260509114540 54 250 0.0 0.0 0.00 0.00 0.00 92 1011.5
20260509113106 53 250 0.0 0.0 0.00 0.00 0.00 91 1011.2
20260509111509 54 250 0.0 0.0 0.00 0.00 0.00 91 1011.0
20260509110021 54 250 0.0 0.0 0.00 0.00 0.00 91 1011.0
20260509104528 55 250 0.0 1.0 0.00 0.00 0.00 90 1011.0
20260509103028 55 303 0.0 0.0 0.00 0.00 0.00 90 1010.8
20260509101540 55 303 0.0 0.0 0.00 0.00 0.00 89 1010.8
20260509100116 55 303 0.0 0.0 0.00 0.00 0.00 88 1010.8